Tracking 19570 objects as of 21-Feb-2019
HD Live streaming from Space Station
objects crossing your sky now

IRIDIUM 69

Track IRIDIUM 69 now!
10-day predictions
IRIDIUM 69 is classified as:


NORAD ID: 25319
Int'l Code: 1998-026A
Perigee: 766.8 km
Apogee: 772.5 km
Inclination: 86.4 °
Period: 100.1 minutes
Semi major axis: 7140 km
RCS: 4.3416 m2 (large)
Launch date: May 2, 1998
Source: United States (US)
Launch site: Taiyaun Space Center, China (TSC)
aabbcc
Your satellite tracking list
Your tracking list is empty




NASA's NSSDC Master Catalog

Two Line Element Set (TLE):
1 25319U 98026A   19051.89033811 +.00000086 +00000-0 +21594-4 0  9993
2 25319 086.4030 347.5450 0003999 071.4515 288.7118 14.38781290091035
Source of the keplerian elements: AFSPC